Quillayute, WA

4:54 PM PDT on April 25, 2017 (GMT -0700)
Quillayute

Weather History for KUIL - November, 2014

Change the Weather History Date:

Saturday, November 29, 2014

  Actual Average Record
Temperature  
Mean Temperature 28 °F 42 °F  
Max Temperature 36 °F 48 °F 61 °F (1999)
Min Temperature 20 °F 36 °F 20 °F (2014)
Degree Days  
Heating Degree Days 37 23  
Month to date heating degree days 549 601  
Since 1 July heating degree days 1198 1691  
Cooling Degree Days 0 0  
Month to date cooling degree days 0 0  
Year to date cooling degree days 25 19  
Moisture  
Dew Point 27 °F    
Average Humidity 77    
Maximum Humidity 100    
Minimum Humidity 53    
Precipitation  
Precipitation 0.02 in 0.53 in 2.90 in (1994)
Month to date precipitation 13.18 15.00  
Year to date precipitation 90.94 86.03  
Sea Level Pressure  
Sea Level Pressure 29.78 in    
Wind  
Wind Speed 9 mph (ENE)    
Max Wind Speed 21 mph    
Max Gust Speed 28 mph    
Visibility 6 miles    
Events Snow    
T = Trace of Precipitation, MM = Missing Value Source: NWS Daily Summary

Daily Weather History Graph

Daily Weather History Graph

Search for Another Location

Airport or City:

Trip Planner

Search our weather history database for the weather conditions in past years. The results will help you decide how hot, cold, wet, or windy it might be!

Date:

Astronomy

Nov. 29, 2014 Rise Set
Actual Time 7:44 AM PST 4:28 PM PST
Civil Twilight 7:09 AM PST 5:03 PM PST
Nautical Twilight 6:30 AM PST 5:42 PM PST
Astronomical Twilight 5:53 AM PST 6:19 PM PST
Moon 12:56 PM PST (11/29) No Moon Set
Length of Visible Light 9h 54m
Length of Day
8h 44m
First Quarter, 55% of the Moon is Illuminated
Nov 29
First Quarter
Dec 6
Full
Dec 14
Last Quarter
Dec 21
New
Dec 28
First Quarter

Hourly Weather History & Observations

Time (PST) Temp. Windchill Dew Point Humidity Pressure Visibility Wind Dir Wind Speed Gust Speed Precip Events Conditions
12:53 AM 35.1 °F 30.1 °F 32.0 °F 89% 29.56 in 8.0 mi West 5.8 mph - 0.00 in   Overcast
1:26 AM 34.0 °F 27.2 °F 32.0 °F 92% 29.56 in 2.5 mi West 8.1 mph - 0.00 in Snow Light Snow
1:29 AM 33.1 °F 26.9 °F 32.0 °F 96% 29.56 in 1.2 mi West 6.9 mph - 0.00 in Snow Light Snow
1:33 AM 33.1 °F 28.7 °F 32.0 °F 96% 29.56 in 0.8 mi WNW 4.6 mph - 0.00 in Snow Light Snow
1:42 AM 33.1 °F - 32.0 °F 96% 29.56 in 1.2 mi Calm Calm - 0.01 in Snow Light Snow
1:45 AM 33.1 °F - 32.0 °F 96% 29.56 in 2.0 mi Calm Calm - 0.01 in Snow Light Snow
1:50 AM 33.8 °F 29.6 °F 32.0 °F 93% 29.56 in 5.0 mi SE 4.6 mph - 0.01 in Snow Light Snow
1:53 AM 33.8 °F 29.6 °F 32.0 °F 93% 29.56 in 5.0 mi SSE 4.6 mph - N/A   Overcast
2:05 AM 33.1 °F 30.0 °F 33.1 °F 100% 29.56 in 6.0 mi ESE 3.5 mph - 0.00 in   Overcast
2:29 AM 33.1 °F 30.0 °F 33.1 °F 100% 29.57 in 1.5 mi SE 3.5 mph - 0.00 in Snow Light Snow
2:31 AM 33.1 °F - 33.1 °F 100% 29.57 in 1.2 mi Calm Calm - 0.00 in Snow Light Snow
2:35 AM 33.1 °F 27.7 °F 32.0 °F 96% 29.57 in 0.8 mi SSE 5.8 mph - 0.01 in Snow Light Snow
2:43 AM 33.8 °F 30.8 °F 33.8 °F 100% 29.57 in 1.5 mi ESE 3.5 mph - N/A Snow Light Snow
2:47 AM 33.8 °F 30.8 °F 33.8 °F 100% 29.57 in 3.0 mi East 3.5 mph - 0.01 in Snow Light Snow
2:53 AM 33.1 °F 30.0 °F 33.1 °F 100% 29.57 in 5.0 mi East 3.5 mph - 0.01 in   Overcast
3:53 AM 32.0 °F 27.5 °F 32.0 °F 100% 29.59 in 6.0 mi East 4.6 mph - 0.00 in   Overcast
4:39 AM 33.1 °F 27.7 °F 32.0 °F 96% 29.61 in 4.0 mi North 5.8 mph - 0.00 in Snow Light Snow
4:53 AM 33.1 °F 27.7 °F 32.0 °F 96% 29.62 in 3.0 mi NE 5.8 mph - 0.00 in Snow Light Snow
4:57 AM 33.1 °F 27.7 °F 32.0 °F 96% 29.61 in 2.5 mi NE 5.8 mph - 0.00 in Snow Light Snow
5:23 AM 33.1 °F 28.7 °F 32.0 °F 96% 29.62 in 5.0 mi East 4.6 mph - 0.00 in Snow Light Snow
5:53 AM 32.0 °F 27.5 °F 32.0 °F 100% 29.65 in 8.0 mi NNE 4.6 mph - 0.00 in   Overcast
6:15 AM 33.1 °F 24.4 °F 30.9 °F 92% 29.66 in 6.0 mi NE 11.5 mph - 0.00 in Snow Light Snow
6:34 AM 32.0 °F 22.5 °F 28.0 °F 85% 29.67 in 7.0 mi NE 12.7 mph 19.6 mph 0.00 in   Overcast
6:53 AM 30.9 °F 20.7 °F 27.0 °F 85% 29.70 in 9.0 mi NE 13.8 mph - 0.00 in   Mostly Cloudy
7:53 AM 30.0 °F 19.5 °F 24.1 °F 79% 29.75 in 7.0 mi ENE 13.8 mph 20.7 mph N/A   Clear
8:53 AM 30.0 °F 20.5 °F 24.1 °F 79% 29.82 in 7.0 mi NE 11.5 mph 18.4 mph N/A   Clear
9:53 AM 32.0 °F 21.6 °F 25.0 °F 75% 29.87 in 7.0 mi ENE 15.0 mph 21.9 mph N/A   Clear
10:53 AM 33.1 °F 23.4 °F 25.0 °F 72% 29.91 in 7.0 mi ENE 13.8 mph 21.9 mph N/A   Clear
11:53 AM 34.0 °F 24.2 °F 23.0 °F 64% 29.94 in 7.0 mi ENE 15.0 mph - N/A   Clear
12:53 PM 34.0 °F 24.6 °F 21.0 °F 59% 29.97 in 8.0 mi NE 13.8 mph - N/A   Clear
1:53 PM 33.1 °F 23.0 °F 21.0 °F 61% 29.99 in 7.0 mi NE 15.0 mph 27.6 mph N/A   Clear
2:53 PM 33.1 °F 23.9 °F 19.0 °F 56% 30.03 in 8.0 mi NE 12.7 mph 20.7 mph N/A   Clear
3:53 PM 32.0 °F 22.5 °F 17.1 °F 54% 30.05 in 7.0 mi NE 12.7 mph - N/A   Clear
4:53 PM 30.0 °F 21.1 °F 17.1 °F 59% 30.06 in 8.0 mi NNE 10.4 mph - N/A   Clear
5:53 PM 30.0 °F 21.1 °F 15.1 °F 54% 30.08 in 9.0 mi NNE 10.4 mph 18.4 mph N/A   Clear
6:53 PM 28.9 °F 19.2 °F 17.1 °F 61% 30.11 in 9.0 mi NE 11.5 mph - N/A   Clear
7:53 PM 28.0 °F 21.7 °F 17.1 °F 63% 30.12 in 9.0 mi ENE 5.8 mph - N/A   Clear
8:53 PM 25.0 °F 18.1 °F 18.0 °F 75% 30.14 in 9.0 mi NE 5.8 mph - N/A   Clear
9:53 PM 24.1 °F - 18.0 °F 77% 30.16 in 8.0 mi Calm Calm - N/A   Clear
10:53 PM 24.1 °F - 19.9 °F 84% 30.18 in 9.0 mi Calm Calm - N/A   Clear
11:53 PM 21.0 °F 14.6 °F 18.0 °F 88% 30.19 in 9.0 mi East 4.6 mph - N/A   Clear